CW6427 Weather Reports


Display with metric or nautical units.
time (UTC)temp
F
wind
direction
speed
MPH
gust
MPH
rain 1hr
in
rain 24hr
in
rain mn
in
humidity
%
barometer
mb
20260901233839 72 346 0.0 2.0 0.00 0.17 0.13 96 1017.6
20260901232839 73 346 1.0 1.0 0.00 0.17 0.13 95 1017.8
20260901231839 74 346 0.0 2.0 0.00 0.17 0.13 95 1017.7
20260901230839 74 346 0.0 1.0 0.00 0.17 0.13 95 1017.8
20260901225838 75 346 1.0 1.0 0.00 0.17 0.13 94 1017.9
20260901224838 75 346 0.0 2.0 0.00 0.17 0.13 94 1017.8
20260901223838 75 346 0.0 4.0 0.00 0.17 0.13 93 1018.0
20260901222838 76 11 1.0 2.0 0.00 0.17 0.13 93 1018.0
20260901221837 76 11 2.0 4.0 0.00 0.17 0.13 93 1017.9
20260901220838 76 28 3.0 4.0 0.00 0.18 0.13 92 1017.9
20260901215837 76 343 3.0 4.0 0.00 0.18 0.13 92 1017.7
20260901214837 76 35 2.0 3.0 0.00 0.20 0.13 93 1017.6
20260901212837 75 42 2.0 3.0 0.00 0.21 0.13 95 1017.5
20260901211836 75 33 2.0 5.0 0.00 0.21 0.13 95 1017.7
20260901210837 75 360 2.0 4.0 0.00 0.21 0.13 95 1017.8
20260901205836 75 19 2.0 5.0 0.00 0.21 0.13 95 1017.8
20260901204836 75 60 1.0 4.0 0.00 0.21 0.13 96 1017.7
20260901203836 75 355 2.0 6.0 0.00 0.21 0.13 96 1017.8
20260901202835 75 360 4.0 8.0 0.00 0.21 0.13 95 1017.7
20260901201836 75 5 2.0 5.0 0.00 0.21 0.13 94 1017.6
20260901200905 76 5 3.0 5.0 0.00 0.21 0.13 92 1017.6
20260901195835 76 360 4.0 5.0 0.00 0.21 0.13 91 1017.6
20260901194835 77 10 4.0 8.0 0.00 0.21 0.13 89 1017.6
20260901193905 77 311 4.0 10.0 0.00 0.21 0.13 89 1017.5
20260901192905 77 264 2.0 4.0 0.00 0.21 0.13 90 1017.6
20260901191904 76 299 3.0 7.0 0.00 0.21 0.13 89 1017.5
20260901190904 76 296 3.0 8.0 0.00 0.21 0.13 90 1017.6
20260901185904 76 313 6.0 11.0 0.00 0.21 0.13 89 1017.6
20260901184904 77 312 8.0 9.0 0.00 0.21 0.13 88 1017.7
20260901182834 76 340 3.0 8.0 0.00 0.21 0.13 91 1017.4
20260901181833 76 316 3.0 7.0 0.00 0.21 0.13 90 1017.4
20260901180903 76 299 5.0 5.0 0.00 0.21 0.13 89 1017.2
20260901175903 77 343 2.0 3.0 0.00 0.21 0.13 88 1017.0
20260901174903 76 343 0.0 4.0 0.00 0.21 0.13 89 1016.9
20260901173833 76 245 2.0 5.0 0.00 0.21 0.13 90 1017.1
20260901172832 76 223 4.0 5.0 0.00 0.21 0.13 90 1016.9
20260901171903 76 205 3.0 6.0 0.00 0.22 0.13 89 1017.0
20260901170902 76 20 3.0 6.0 0.00 0.22 0.13 89 1016.9
20260901164902 76 211 2.0 9.0 0.00 0.23 0.13 92 1017.0
20260901162902 75 201 2.0 6.0 0.00 0.23 0.13 93 1017.2
20260901161902 75 182 2.0 9.0 0.00 0.23 0.13 93 1017.2
20260901160901 75 196 5.0 9.0 0.00 0.24 0.13 92 1017.1
20260901155901 75 218 6.0 11.0 0.00 0.25 0.13 95 1017.0
20260901154901 74 207 5.0 9.0 0.00 0.26 0.13 95 1017.1
20260901153901 73 186 4.0 10.0 0.00 0.28 0.13 96 1017.1
20260901152901 72 183 6.0 8.0 0.00 0.29 0.13 96 1017.0
20260901151900 72 196 5.0 8.0 0.00 0.30 0.13 96 1017.1
20260901150900 72 200 4.0 7.0 0.00 0.30 0.13 96 1017.3
20260901144900 71 199 5.0 9.0 0.00 0.31 0.13 97 1017.2
20260901143900 71 190 3.0 9.0 0.00 0.31 0.13 98 1016.9
20260901142859 70 215 4.0 7.0 0.00 0.31 0.13 98 1017.0
20260901141900 70 209 3.0 9.0 0.00 0.31 0.13 98 1017.0
20260901140859 70 191 5.0 6.0 0.00 0.31 0.13 99 1016.9
20260901135859 70 188 6.0 8.0 0.00 0.31 0.13 99 1016.7
20260901134859 69 200 8.0 8.0 0.00 0.31 0.13 100 1016.6
20260901132859 69 163 4.0 7.0 0.00 0.31 0.13 100 1016.8
20260901131859 68 155 3.0 7.0 0.00 0.31 0.13 100 1016.6
20260901130858 68 161 5.0 8.0 0.00 0.31 0.13 100 1017.0
20260901125858 68 159 4.0 6.0 0.00 0.31 0.13 100 1017.2
20260901123858 67 201 2.0 4.0 0.00 0.31 0.13 100 1017.4
20260901122858 67 202 3.0 5.0 0.00 0.31 0.13 100 1017.4
20260901121857 67 188 3.0 5.0 0.01 0.31 0.13 100 1017.1
20260901120857 67 192 3.0 4.0 0.01 0.31 0.13 100 1017.4
20260901115857 67 182 1.0 2.0 0.01 0.31 0.13 100 1017.3
20260901114857 67 182 0.0 3.0 0.01 0.31 0.13 100 1017.4
20260901112856 67 181 1.0 4.0 0.01 0.31 0.13 100 1017.3
20260901110857 67 184 2.0 4.0 0.00 0.30 0.12 100 1017.4
20260901105856 67 185 2.0 3.0 0.00 0.30 0.12 100 1017.3
20260901103856 67 184 0.0 3.0 0.06 0.30 0.12 100 1017.2
20260901102856 66 179 0.0 3.0 0.09 0.30 0.12 100 1017.3
20260901101856 66 178 0.0 0.0 0.09 0.30 0.12 100 1017.2
20260901100856 67 178 0.0 0.0 0.09 0.30 0.12 100 1017.4
20260901095856 67 178 0.0 0.0 0.09 0.30 0.12 100 1017.4
20260901094855 67 178 0.0 3.0 0.09 0.30 0.12 100 1017.6
20260901093855 67 173 0.0 5.0 0.03 0.24 0.06 100 1017.4
20260901091855 67 166 3.0 5.0 0.00 0.21 0.03 100 1017.3
20260901090855 67 163 2.0 7.0 0.00 0.21 0.03 100 1017.1
20260901085855 67 188 3.0 6.0 0.00 0.21 0.03 100 1017.2
20260901084854 67 197 3.0 7.0 0.00 0.21 0.03 100 1017.4
20260901083854 67 205 4.0 8.0 0.00 0.21 0.03 100 1017.5
20260901082854 67 201 4.0 6.0 0.01 0.21 0.03 100 1017.6
20260901081854 67 190 2.0 4.0 0.01 0.21 0.03 100 1017.7
20260901080854 67 182 2.0 6.0 0.01 0.21 0.03 100 1017.6
20260901074853 68 198 2.0 6.0 0.02 0.21 0.03 100 1017.9
20260901073853 67 208 3.0 6.0 0.02 0.21 0.03 100 1018.0
20260901072853 67 203 2.0 6.0 0.01 0.20 0.02 100 1018.0
20260901070852 67 203 3.0 6.0 0.01 0.20 0.02 100 1018.4
20260901065852 66 182 0.0 0.0 0.00 0.19 0.01 100 1018.2
20260901064852 66 182 0.0 0.0 0.00 0.19 0.01 100 1018.1
20260901063852 66 182 0.0 0.0 0.00 0.19 0.01 100 1018.2
20260901062852 66 182 0.0 2.0 0.00 0.19 0.01 100 1018.4
20260901061852 66 182 1.0 1.0 0.00 0.19 0.01 100 1018.4
20260901060851 66 182 0.0 0.0 0.00 0.19 0.01 100 1018.5
20260901055852 67 183 0.0 0.0 0.00 0.19 0.01 100 1018.6
20260901054851 67 183 0.0 1.0 0.00 0.19 0.01 100 1018.8
20260901053851 67 182 0.0 0.0 0.01 0.19 0.01 100 1019.0
20260901051851 67 182 1.0 3.0 0.01 0.19 0.01 100 1019.0
20260901050851 67 183 2.0 3.0 0.01 0.19 0.01 100 1019.1
20260901045850 67 183 2.0 4.0 0.01 0.19 0.01 100 1018.9
20260901044850 67 182 2.0 4.0 0.01 0.19 0.01 100 1019.1
20260901043850 67 184 1.0 5.0 0.01 0.18 0.00 100 1019.3
20260901042850 67 181 2.0 3.0 0.01 0.18 0.00 100 1019.3
20260901041850 67 180 3.0 4.0 0.01 0.18 0.00 100 1019.3
20260901040850 66 176 3.0 4.0 0.01 0.18 0.00 100 1019.2
20260901035850 66 175 2.0 3.0 0.01 0.18 0.18 100 1019.2
20260901033849 66 175 1.0 2.0 0.00 0.17 0.17 100 1019.3
20260901032849 66 175 0.0 0.0 0.00 0.17 0.17 100 1019.3
20260901031849 66 175 0.0 0.0 0.00 0.17 0.17 100 1019.4
20260901030848 66 175 0.0 0.0 0.00 0.17 0.17 100 1020.0
20260901025848 66 175 0.0 0.0 0.00 0.17 0.17 100 1019.4
20260901024848 66 175 0.0 2.0 0.00 0.17 0.17 100 1019.4
20260901023848 66 175 1.0 3.0 0.00 0.17 0.17 100 1019.4
20260901022848 66 175 0.0 0.0 0.00 0.17 0.17 100 1019.4
20260901021848 66 175 0.0 0.0 0.00 0.17 0.17 100 1019.5
20260901020848 66 175 0.0 0.0 0.01 0.17 0.17 100 1019.6
20260901014847 66 175 0.0 0.0 0.01 0.17 0.17 100 1019.6
20260901013847 66 175 0.0 0.0 0.02 0.17 0.17 100 1019.7
20260901012847 65 175 0.0 0.0 0.02 0.17 0.17 100 1019.6
20260901011847 65 175 0.0 0.0 0.02 0.17 0.17 100 1019.7
20260901010847 65 175 0.0 0.0 0.01 0.16 0.16 100 1019.8
20260901005846 65 175 0.0 0.0 0.01 0.16 0.16 100 1019.6
20260901004846 65 175 0.0 0.0 0.01 0.16 0.16 100 1019.6
20260901003846 65 175 0.0 0.0 0.01 0.15 0.15 100 1019.5
20260901002846 65 175 0.0 0.0 0.01 0.15 0.15 100 1019.4
20260901001846 65 175 0.0 0.0 0.01 0.15 0.15 100 1019.4
20260901000845 65 175 0.0 0.0 0.01 0.15 0.15 100 1019.2
20260831235845 65 175 0.0 0.0 0.01 0.15 0.15 100 1019.0
20260831234845 65 175 0.0 0.0 0.01 0.15 0.15 100 1019.2